Location: Deep South Regional Star Gaze
(30.9929°N, 90.9586°W)
Time: 15:37:41
(UTC-05:00)

Daily predictions for brighter satellites

Satellite Brightness Start Highest point End
(mag) Time Altitude Azimuth Time Altitude Azimuth Time Altitude Azimuth
NOSS 3-1 (A) 3.9 20:28:03 10° S 20:33:12 35° ESE 20:38:42 10° NE
Cosmos 773 Rocket 4.4 20:32:43 10° N 20:37:44 47° ENE 20:42:46 10° SE
Cosmos 405 4.4 20:35:43 10° NNE 20:38:38 22° ENE 20:41:30 10° SE
Delta 2 Rocket 4.3 20:35:55 10° WNW 20:39:42 39° N 20:43:07 10° ENE
Cosmos 1437 3.8 20:38:27 10° SSE 20:41:16 27° E 20:44:06 10° NNE
ALOS 2.3 20:38:06 10° SSE 20:42:44 72° ENE 20:47:24 10° N
Cosmos 2219 3.3 20:39:33 10° S 20:45:10 59° ESE 20:50:49 10° NNE
Tiangong 1 3.6 20:42:57 10° WNW 20:45:31 23° NNW 20:48:05 10° NNE
FENGYUN 3A 3.7 20:42:12 10° SSE 20:47:36 77° ENE 20:53:01 10° N
Cosmos 2228 Rocket 3.4 20:44:01 10° N 20:48:31 72° W 20:53:02 10° S
Meteor 1-21 Rocket 4.4 20:43:22 10° S 20:48:53 80° W 20:54:26 10° N
Cosmos 371 Rocket 4.2 20:45:45 10° NNW 20:50:23 50° WSW 20:55:01 10° S
OAO 2 Rocket 3.6 20:45:22 10° WSW 20:50:40 80° NNW 20:56:01 10° ENE
Cosmos 1441 Rocket 4.0 20:47:04 10° SSW 20:50:45 53° W 20:54:25 10° N
S3M 4.0 20:45:05 10° N 20:51:14 84° E 20:57:24 10° S
ATLAS 2AS CENTAUR R/B 3.9 20:50:06 10° SSE 20:55:21 22° ESE 21:00:53 10° ENE
Cosmos 2322 Rocket 3.1 20:50:13 10° NNW 20:55:36 50° WSW 21:01:00 10° S
Resurs 01 Rocket 4.2 20:56:23 10° SW 20:59:34 19° W 21:02:46 10° NW
Cosmos 1515 Rocket 3.5 20:55:29 10° N 20:59:54 87° E 21:04:16 10° S
Cosmos 2322 4.0 20:54:53 10° N 21:00:29 54° ENE 21:05:37 12° SE
Cosmos 1328 4.2 20:56:56 10° SSE 21:00:38 41° E 21:04:22 10° NNE
deb Chang Zheng 4 3.8 20:57:46 10° NNE 21:01:58 48° E 21:06:10 10° S
Cosmos 2360 Rocket 2.4 20:57:00 10° NNW 21:02:35 59° ENE 21:07:43 12° SSE
Cosmos 1151 Rocket 3.3 20:59:39 10° N 21:03:53 51° E 21:07:56 11° SSE
ERS-1 Rocket 3.2 20:59:42 10° SSE 21:04:33 52° ENE 21:09:26 10° N
ERBS 2.5 21:01:35 10° SSW 21:04:59 49° SE 21:08:22 10° NE
Meteor 2-20 Rocket 4.4 20:58:57 10° S 21:05:04 74° E 21:11:12 10° N
Meteor 2-2 Rocket 4.4 21:01:32 10° N 21:07:35 81° E 21:13:36 10° S
SL-16 R/B 3.4 21:04:07 10° NW 21:09:22 40° WSW 21:14:35 10° S
Sakura Rocket 3.6 21:05:04 10° SW 21:09:35 36° SSE 21:12:17 16° ESE
Envisat 3.7 21:08:20 15° SE 21:12:01 36° ENE 21:16:37 10° N
Cosmos 1674 3.1 21:08:39 10° SSW 21:12:26 64° W 21:16:16 10° N
SL-14 R/B 4.3 21:14:22 19° SE 21:16:19 28° E 21:19:45 10° NNE
NOSS 3-1 (C) 3.7 21:12:16 10° SW 21:17:57 70° WNW 21:24:13 10° NNE
Cosmos 883 Rocket 4.5 21:12:23 10° N 21:18:31 67° E 21:24:18 11° SSE
Cosmos 304 Rocket 3.7 21:16:19 10° NNW 21:21:08 81° ENE 21:24:54 16° SSE
Cosmos 1805 Rocket 3.7 21:17:52 11° S 21:22:05 53° E 21:26:25 10° NNE
Cosmos 1908 3.4 21:18:19 10° N 21:22:14 74° W 21:26:00 11° S
SJ-11-01 4.2 21:18:47 13° SSE 21:23:02 81° ENE 21:27:46 10° N
Cosmos 2227 Rocket 2.9 21:23:04 16° SSE 21:26:42 31° ESE 21:31:35 10° NE
Cosmos 1937 Rocket 3.8 21:24:10 10° S 21:29:09 46° ESE 21:34:06 10° NNE
Cosmos 1300 3.3 21:31:11 10° NNE 21:34:45 37° E 21:35:46 31° ESE
Cosmos 2112 Rocket 4.0 21:30:35 10° NNW 21:35:51 87° ENE 21:39:25 21° SSE
H-2A R/B 2.1 21:36:22 21° SSE 21:39:22 89° ENE 21:43:54 10° NNW
SPOT 5 3.0 21:40:03 29° SE 21:42:08 54° ENE 21:46:49 10° N
Cosmos 1666 Rocket 3.4 21:42:22 22° S 21:45:09 73° E 21:49:34 10° N
H-2A R/B 3.0 21:42:19 10° WSW 21:45:35 54° SSE 21:59:49 10° E
Cosmos 2298 Rocket 4.3 21:40:20 10° SSW 21:45:36 68° WNW 21:50:56 10° N
ARGOS 4.3 21:44:45 23° E 21:46:27 28° ENE 21:50:56 10° NNE
Cosmos 1707 Rocket 3.6 21:42:28 10° N 21:46:47 57° E 21:48:16 37° SE
Meteor 1-11 4.2 21:41:32 10° S 21:47:19 87° E 21:53:03 10° N
CZ-4B R/B 3.6 21:47:01 10° NNE 21:52:09 55° E 21:54:31 30° SSE
Cosmos 1241 Rocket 4.3 21:46:42 10° SSW 21:52:49 74° ESE 21:59:02 10° NNE
OTV 4 2.3 21:50:11 10° WNW 21:52:51 30° NNW 21:54:45 15° NE
Cosmos 2297 Rocket 2.7 21:51:53 32° SE 21:53:06 36° ESE 21:58:14 10° NE
Cosmos 2333 Rocket 3.4 21:49:10 10° N 21:53:59 27° ENE 21:55:43 23° E
Hubble Space Telescope 0.9 21:50:29 10° WSW 21:54:30 52° S 21:54:58 49° SSE
Cosmos 1455 4.4 21:54:38 10° NE 21:55:49 13° ENE 21:55:49 13° ENE
Cosmos 2315 Rocket 4.0 21:51:26 10° N 21:57:37 81° W 22:01:53 22° S
Cosmos 1726 2.1 21:55:07 10° N 21:58:52 62° E 21:59:13 58° ESE
Cosmos 1470 Rocket 4.2 21:59:12 36° E 21:59:12 36° E 22:03:00 10° NNE
Cosmos 1933 Rocket 4.2 22:00:00 36° E 22:00:00 36° E 22:04:02 10° NNE
SL-23 DEB 3.5 21:56:47 10° NW 22:01:14 71° NE 22:01:40 61° E
Cosmos 2219 Rocket 2.8 21:56:17 10° N 22:01:33 41° ENE 22:03:06 34° ESE
Cosmos 2058 4.3 22:00:46 10° SSW 22:04:34 37° W 22:08:23 10° NNW
COSMOS 2428 2.7 22:00:19 10° NNW 22:06:01 82° WSW 22:08:25 36° SSE
Meteor 1-4 Rocket 2.9 22:03:41 10° N 22:06:57 49° ENE 22:06:57 49° ENE
NOSS 0 Rocket 4.5 22:01:57 10° N 22:07:46 43° ENE 22:09:35 34° ESE
DELTA 2 R/B (1) 3.8 22:03:48 10° WNW 22:09:12 55° SSW 22:10:38 42° SSE
SL-08 R/B 4.4 22:09:43 29° S 22:13:07 81° E 22:19:25 10° N
Terra 3.5 22:14:22 19° ENE 22:14:22 19° ENE 22:17:33 10° NNE
H-2A R/B 3.3 22:15:25 26° ENE 22:15:56 26° ENE 22:20:21 10° NNE
Cosmos 1745 Rocket 3.9 22:16:53 36° S 22:19:35 78° E 22:25:46 10° N
COSMOS 2455 4.5 22:15:59 10° N 22:20:18 20° NE 22:21:50 18° ENE
Delta 2 Rocket 3.5 22:18:53 10° WNW 22:22:04 55° NNW 22:22:04 55° NNW
Cosmos 1125 Rocket 4.1 22:23:43 40° E 22:23:43 40° E 22:28:01 10° NNE
MetOp-B 4.3 22:23:27 41° S 22:25:16 68° WSW 22:30:36 10° NNW
Cosmos 1980 4.0 22:20:37 10° N 22:26:04 48° ENE 22:26:49 45° E
SPOT 1/Viking Rocket 3.4 22:27:31 61° SSE 22:28:27 88° ENE 22:33:37 10° NNW
Cosmos 1626 3.2 22:36:48 40° NNE 22:36:48 40° NNE 22:39:19 10° N
OAO 2 Rocket 4.0 22:30:37 10° WNW 22:35:51 55° N 22:38:02 33° ENE
Cosmos 1386 Rocket 4.3 22:36:10 57° SSE 22:37:24 78° E 22:43:25 10° N
Cosmos 2237 Rocket 2.3 22:32:13 10° N 22:37:48 56° ENE 22:38:17 54° E
Cosmos 2082 4.2 22:33:52 15° SW 22:38:37 58° WNW 22:44:16 10° N
YAOGAN 6 3.8 22:39:28 39° W 22:39:28 39° W 22:42:28 10° NNW
Iridium 2 4.4 22:40:38 51° NW 22:40:38 51° NW 22:43:57 10° N
Cosmos 1271 Rocket 3.5 22:37:23 10° NNW 22:40:45 50° WNW 22:40:45 50° WNW
ATLAS 2AS CENTAUR R/B 3.3 22:38:21 10° SW 22:45:34 63° WNW 22:53:28 10° NNE
NOAA 11 4.1 22:45:11 69° SSW 22:45:50 81° WSW 22:51:19 10° NNW
Cosmos 1862 Rocket 4.1 22:41:45 10° N 22:45:04 49° NNE 22:45:04 49° NNE
ATLAS 3B R/B 3.3 22:53:18 10° NNW 22:59:44 40° NE 23:00:41 38° ENE
Cosmos 2181 Rocket 4.4 23:01:36 10° N 23:07:35 51° ENE 23:07:35 51° ENE
Cosmos 2227 Rocket 4.0 23:05:50 10° WSW 23:10:37 28° WNW 23:15:28 10° N
FALCON 9 R/B 3.6 22:53:06 10° W 23:17:40 76° N 23:20:47 40° E
DMSP B5D2-2 4.4 23:15:29 10° N 23:20:22 59° WNW 23:20:22 59° WNW
SL-16 R/B 2.6 23:27:54 10° NNW 23:32:32 58° N 23:32:32 58° N
Cosmos 2297 Rocket 4.1 23:33:34 14° WSW 23:37:08 24° WNW 23:41:41 10° N
Cosmos 2333 Rocket 3.4 23:33:05 10° NW 23:37:44 33° W 23:37:44 33° W
Cosmos 2219 Rocket 4.0 23:41:09 10° NW 23:44:50 20° W 23:44:50 20° W
Lacrosse 4 Rocket 3.5 23:43:07 10° NNW 23:45:16 28° NNW 23:45:16 28° NNW
Terra 3.6 23:53:15 27° WNW 23:53:15 27° WNW 23:55:58 10° NNW
H-2A R/B 3.6 23:56:03 29° WNW 23:56:03 29° WNW 23:59:54 10° NW
